�������l�o���
Date,Time,MP-1(��Sv/h),MP-2(��Sv/h),MP-3(��Sv/h),MP-4(��Sv/h),MP-5(��Sv/h),MP-6(��Sv/h),MP-7(��Sv/h),MP-8(��Sv/h),����,����(m/s),���J
2023/06/12,00:00,0.516,0.761,0.473,0.927,0.667,0.314,0.552,0.526,�k�k��,4.8,��
2023/06/12,00:10,0.515,0.762,0.472,0.930,0.668,0.316,0.553,0.524,�k�k��,5.8,�L
2023/06/12,00:20,0.515,0.763,0.473,0.928,0.669,0.315,0.552,0.525,�k�k��,5.2,�L
2023/06/12,00:30,0.516,0.765,0.470,0.928,0.669,0.314,0.552,0.525,�k�k��,4.9,�L
2023/06/12,00:40,0.518,0.764,0.472,0.928,0.669,0.314,0.553,0.525,�k�k��,5.2,�L
2023/06/12,00:50,0.517,0.764,0.470,0.927,0.670,0.316,0.553,0.524,�k�k��,5.7,�L
2023/06/12,01:00,0.515,0.764,0.470,0.929,0.668,0.315,0.554,0.524,�k�k��,6.4,��
2023/06/12,01:10,0.516,0.764,0.470,0.930,0.669,0.315,0.554,0.524,�k,5.9,��
2023/06/12,01:20,0.516,0.765,0.471,0.927,0.669,0.315,0.555,0.524,�k,5.4,��
2023/06/12,01:30,0.517,0.764,0.470,0.928,0.669,0.314,0.554,0.524,�k,5.7,��
2023/06/12,01:40,0.515,0.766,0.471,0.928,0.670,0.316,0.554,0.524,�k,5.7,��
2023/06/12,01:50,0.517,0.765,0.472,0.930,0.668,0.315,0.554,0.526,�k,6.9,��
2023/06/12,02:00,0.517,0.764,0.471,0.930,0.669,0.315,0.554,0.525,�k,6.5,��
2023/06/12,02:10,0.515,0.764,0.470,0.929,0.667,0.316,0.553,0.524,�k,5.6,��
2023/06/12,02:20,0.515,0.764,0.471,0.932,0.668,0.314,0.555,0.525,�k�k��,5.2,��
2023/06/12,02:30,0.515,0.766,0.471,0.930,0.669,0.315,0.556,0.524,�k�k��,4.4,��
2023/06/12,02:40,0.518,0.765,0.471,0.931,0.670,0.315,0.555,0.526,�k�k��,4.8,��
2023/06/12,02:50,0.517,0.766,0.472,0.929,0.671,0.316,0.555,0.525,�k�k��,5.6,��
2023/06/12,03:00,0.517,0.766,0.472,0.929,0.671,0.314,0.552,0.526,�k�k��,4.9,��
2023/06/12,03:10,0.518,0.766,0.473,0.932,0.669,0.316,0.554,0.524,�k�k��,4.5,��
2023/06/12,03:20,0.517,0.767,0.472,0.931,0.670,0.315,0.555,0.526,�k�k��,5.0,��
2023/06/12,03:30,0.516,0.764,0.472,0.932,0.672,0.315,0.554,0.526,�k�k��,5.0,��
2023/06/12,03:40,0.516,0.766,0.472,0.930,0.670,0.315,0.554,0.527,�k�k��,5.1,��
2023/06/12,03:50,0.518,0.767,0.472,0.932,0.671,0.315,0.554,0.526,�k�k��,4.4,��
2023/06/12,04:00,0.518,0.766,0.472,0.930,0.669,0.316,0.554,0.526,�k�k��,4.7,��
2023/06/12,04:10,0.518,0.767,0.473,0.933,0.671,0.316,0.553,0.526,�k,4.8,��
2023/06/12,04:20,0.518,0.767,0.472,0.933,0.672,0.316,0.554,0.526,�k,5.8,��
2023/06/12,04:30,0.519,0.766,0.474,0.932,0.670,0.315,0.555,0.525,�k,5.7,��
2023/06/12,04:40,0.517,0.767,0.471,0.932,0.672,0.316,0.554,0.524,�k,5.7,��
2023/06/12,04:50,0.516,0.767,0.471,0.931,0.671,0.316,0.553,0.525,�k,5.0,��
2023/06/12,05:00,0.519,0.768,0.474,0.930,0.671,0.315,0.554,0.524,�k�k��,4.7,��
2023/06/12,05:10,0.517,0.767,0.472,0.932,0.670,0.316,0.554,0.526,�k�k��,5.1,��
2023/06/12,05:20,0.517,0.767,0.473,0.932,0.671,0.316,0.555,0.526,�k�k��,5.0,��
2023/06/12,05:30,0.517,0.767,0.473,0.932,0.672,0.315,0.554,0.525,�k,5.4,��
2023/06/12,05:40,0.517,0.768,0.473,0.933,0.673,0.315,0.554,0.525,�k�k��,6.2,��
2023/06/12,05:50,0.517,0.767,0.474,0.933,0.671,0.316,0.555,0.526,�k�k��,5.5,��
2023/06/12,06:00,0.515,0.768,0.473,0.932,0.670,0.315,0.555,0.525,�k�k��,5.4,��
2023/06/12,06:10,0.519,0.768,0.471,0.933,0.671,0.316,0.554,0.523,�k�k��,4.2,��
2023/06/12,06:20,0.519,0.766,0.473,0.933,0.671,0.316,0.554,0.525,�k�k��,4.5,��
2023/06/12,06:30,0.517,0.767,0.473,0.932,0.671,0.316,0.556,0.524,�k�k��,5.0,��
2023/06/12,06:40,0.518,0.766,0.474,0.933,0.671,0.316,0.555,0.524,�k�k��,4.6,��
2023/06/12,06:50,0.518,0.767,0.474,0.933,0.673,0.317,0.555,0.525,�k�k��,4.4,��
2023/06/12,07:00,0.516,0.767,0.473,0.934,0.671,0.315,0.555,0.526,�k�k��,3.6,��
2023/06/12,07:10,0.516,0.767,0.472,0.933,0.672,0.316,0.555,0.525,�k�k��,4.7,��
2023/06/12,07:20,0.517,0.768,0.474,0.933,0.671,0.316,0.556,0.523,�k�k��,4.2,��
2023/06/12,07:30,0.518,0.768,0.474,0.934,0.672,0.315,0.555,0.524,�k�k��,3.4,��
2023/06/12,07:40,0.519,0.768,0.472,0.935,0.673,0.315,0.556,0.525,�k�k��,4.2,��
2023/06/12,07:50,0.518,0.768,0.473,0.933,0.671,0.316,0.557,0.524,�k�k��,3.9,��
2023/06/12,08:00,0.517,0.765,0.473,0.934,0.669,0.316,0.555,0.524,�k�k��,3.6,��
2023/06/12,08:10,0.517,0.767,0.472,0.934,0.671,0.316,0.555,0.523,�k�k��,3.0,��
2023/06/12,08:20,0.518,0.767,0.473,0.936,0.670,0.315,0.556,0.523,�k�k��,2.3,��
2023/06/12,08:30,0.516,0.765,0.472,0.934,0.671,0.315,0.556,0.522,�k�k��,1.7,��
2023/06/12,08:40,0.519,0.767,0.471,0.935,0.671,0.314,0.557,0.523,�k�k��,2.9,��
2023/06/12,08:50,0.518,0.769,0.472,0.934,0.672,0.315,0.556,0.523,�k,1.7,��
2023/06/12,09:00,0.518,0.767,0.472,0.935,0.671,0.315,0.557,0.523,�k�k��,1.7,��
2023/06/12,09:10,0.517,0.769,0.471,0.933,0.670,0.316,0.557,0.524,�k�k��,1.5,��
2023/06/12,09:20,0.519,0.766,0.473,0.934,0.672,0.317,0.555,0.523,�k�k��,1.9,��
2023/06/12,09:30,0.518,0.766,0.474,0.936,0.672,0.316,0.557,0.523,�k�k��,2.0,��
2023/06/12,09:40,0.519,0.766,0.470,0.934,0.671,0.315,0.556,0.524,�k�k��,2.6,��
2023/06/12,09:50,0.521,0.770,0.473,0.934,0.673,0.315,0.555,0.525,�k,3.2,��
2023/06/12,10:00,0.520,0.768,0.473,0.935,0.673,0.316,0.557,0.525,�k,3.3,��
2023/06/12,10:10,0.520,0.768,0.475,0.932,0.672,0.316,0.557,0.525,�k,3.7,��
2023/06/12,10:20,0.521,0.769,0.474,0.934,0.673,0.315,0.557,0.527,�k,4.3,��
2023/06/12,10:30,0.519,0.769,0.474,0.933,0.675,0.317,0.557,0.526,�k�k��,4.6,��
2023/06/12,10:40,0.520,-,0.475,0.934,0.673,0.316,0.557,0.525,�k�k��,4.5,��
2023/06/12,10:50,0.521,-,0.474,0.935,0.662,0.317,0.556,0.527,�k�k��,4.5,��
2023/06/12,11:00,0.520,-,0.473,0.935,0.668,0.317,0.557,0.525,�k,4.5,��
2023/06/12,11:10,0.522,-,0.474,0.938,0.675,0.316,0.557,0.526,�k�k��,3.6,��
2023/06/12,11:20,0.522,-,0.474,0.937,0.675,0.316,0.557,0.526,�k,3.9,��
2023/06/12,11:30,0.521,-,0.475,0.934,0.675,0.316,0.557,0.527,�k,3.5,��
2023/06/12,11:40,0.523,-,0.475,0.936,0.675,0.317,0.558,0.527,�k�k��,4.0,��
2023/06/12,11:50,0.523,-,0.476,0.936,0.676,0.316,0.558,0.527,�k�k��,4.6,��
2023/06/12,12:00,0.523,-,0.476,0.935,0.677,0.318,0.559,0.527,�k,4.2,��
2023/06/12,12:10,0.523,-,0.477,0.936,0.677,0.318,0.557,0.529,�k,4.8,��
2023/06/12,12:20,0.524,-,0.476,0.935,0.677,0.316,0.558,0.526,�k,5.3,��
2023/06/12,12:30,0.523,-,0.476,0.935,0.678,0.318,0.559,0.528,�k,6.1,��
2023/06/12,12:40,0.524,-,0.478,0.937,0.677,0.317,0.558,0.529,�k,5.3,��
2023/06/12,12:50,0.522,-,0.476,0.937,0.677,0.318,0.559,0.528,�k�k��,4.2,��
2023/06/12,13:00,0.523,-,0.479,0.937,0.679,0.317,0.559,0.528,�k,5.1,��
2023/06/12,13:10,0.525,-,0.478,0.938,0.679,0.317,0.560,0.530,�k�k��,5.3,��
2023/06/12,13:20,0.525,0.774,0.478,0.937,0.678,0.318,0.560,0.529,�k�k��,5.4,��
2023/06/12,13:30,0.525,0.774,0.477,0.939,0.679,0.319,0.558,0.527,�k�k��,5.1,��
2023/06/12,13:40,0.524,0.778,0.478,0.938,0.679,0.318,0.560,0.526,�k�k��,4.8,��
2023/06/12,13:50,0.522,0.776,0.480,0.935,0.679,0.318,0.559,0.528,�k�k��,4.8,��
2023/06/12,14:00,0.525,0.775,0.478,0.937,0.681,0.317,0.560,0.528,�k�k��,4.7,��
2023/06/12,14:10,0.523,0.772,0.478,0.937,0.679,0.319,0.561,0.528,�k��,4.3,��
2023/06/12,14:20,0.522,0.778,0.478,0.937,0.678,0.317,0.560,0.526,�k��,3.2,��
2023/06/12,14:30,0.524,0.776,0.479,0.938,0.679,0.316,0.560,0.528,�k��,2.6,��
2023/06/12,14:40,0.524,0.777,0.478,0.939,0.680,0.318,0.560,0.528,���k��,1.9,��
2023/06/12,14:50,0.525,0.777,0.478,0.938,0.680,0.318,0.559,0.529,��,2.2,��
2023/06/12,15:00,0.525,0.777,0.478,0.940,0.682,0.317,0.561,0.529,��,1.7,��
2023/06/12,15:10,0.524,0.777,0.479,0.937,0.680,0.316,0.560,0.529,��,1.1,��
2023/06/12,15:20,0.525,0.778,0.477,0.940,0.679,0.317,0.560,0.528,���쓌,1.5,��
2023/06/12,15:30,0.525,0.778,0.477,0.940,0.680,0.317,0.560,0.528,�k��,1.4,��
2023/06/12,15:40,0.524,0.777,0.479,0.939,0.678,0.317,0.561,0.527,�쓌,0.9,��
2023/06/12,15:50,0.524,0.776,0.478,0.941,0.680,0.317,0.559,0.527,��쓌,1.5,��
2023/06/12,16:00,0.523,0.775,0.478,0.942,0.680,0.318,0.559,0.528,��,2.3,��
2023/06/12,16:10,0.525,0.779,0.480,0.940,0.680,0.318,0.560,0.527,��쓌,2.2,��
2023/06/12,16:20,0.524,0.779,0.480,0.943,0.679,0.317,0.560,0.529,���쓌,1.4,��
2023/06/12,16:30,0.526,0.777,0.480,0.940,0.680,0.317,0.559,0.527,�쓌,2.3,��
2023/06/12,16:40,0.526,0.778,0.479,0.942,0.681,0.317,0.560,0.529,�쓌,2.2,��
2023/06/12,16:50,0.525,0.778,0.480,0.943,0.681,0.317,0.558,0.529,�쓌,1.7,��
2023/06/12,17:00,0.525,0.779,0.481,0.942,0.680,0.318,0.561,0.528,�쓌,2.0,��
2023/06/12,17:10,0.525,0.779,0.483,0.943,0.680,0.317,0.560,0.529,��쓌,2.2,��
2023/06/12,17:20,0.525,0.781,0.481,0.942,0.682,0.317,0.559,0.529,���쓌,1.9,��
2023/06/12,17:30,0.527,0.781,0.480,0.941,0.681,0.317,0.561,0.530,�쓌,1.1,��
2023/06/12,17:40,0.527,0.779,0.480,0.943,0.681,0.318,0.560,0.528,���쓌,0.8,��
2023/06/12,17:50,0.525,0.780,0.481,0.943,0.680,0.317,0.560,0.529,�쓌,0.8,��
2023/06/12,18:00,0.527,0.781,0.480,0.943,0.682,0.317,0.560,0.528,���쓌,1.1,��
2023/06/12,18:10,0.527,0.780,0.481,0.943,0.681,0.316,0.560,0.528,�쓌,0.8,��
2023/06/12,18:20,0.526,0.782,0.483,0.943,0.682,0.317,0.560,0.528,��,1.1,��
2023/06/12,18:30,0.526,0.781,0.481,0.943,0.683,0.318,0.560,0.528,�쐼,1.4,��
2023/06/12,18:40,0.527,0.781,0.482,0.944,0.682,0.318,0.559,0.528,���쐼,1.2,��
2023/06/12,18:50,0.527,0.781,0.481,0.942,0.682,0.317,0.559,0.528,��쐼,1.5,��
2023/06/12,19:00,0.526,0.783,0.482,0.942,0.684,0.318,0.559,0.527,��,1.2,��
2023/06/12,19:10,0.527,0.782,0.480,0.944,0.680,0.318,0.560,0.530,��쐼,1.5,��
2023/06/12,19:20,0.528,0.781,0.482,0.944,0.683,0.319,0.560,0.528,��쐼,1.7,��
2023/06/12,19:30,0.527,0.783,0.481,0.945,0.683,0.318,0.559,0.530,��,1.4,��
2023/06/12,19:40,0.527,0.782,0.481,0.943,0.682,0.319,0.560,0.530,��쐼,0.9,��
2023/06/12,19:50,0.527,0.784,0.482,0.942,0.684,0.318,0.560,0.529,��,0.8,��
2023/06/12,20:00,0.527,0.784,0.482,0.941,0.684,0.318,0.559,0.529,-,CALM,��
2023/06/12,20:10,0.527,0.783,0.481,0.943,0.683,0.319,0.559,0.529,�쓌,0.8,��
2023/06/12,20:20,0.527,0.784,0.482,0.943,0.683,0.319,0.558,0.530,��,0.6,��
2023/06/12,20:30,0.527,0.784,0.481,0.944,0.683,0.319,0.560,0.531,���쐼,0.9,��
2023/06/12,20:40,0.527,0.784,0.482,0.943,0.685,0.319,0.561,0.529,��,1.2,��
2023/06/12,20:50,0.528,0.782,0.482,0.945,0.686,0.320,0.559,0.530,�쐼,0.8,��
2023/06/12,21:00,0.528,0.785,0.482,0.942,0.682,0.320,0.561,0.531,�쐼,0.8,��
2023/06/12,21:10,0.528,0.783,0.481,0.947,0.681,0.319,0.561,0.530,��,0.6,��
2023/06/12,21:20,0.528,0.782,0.484,0.942,0.685,0.319,0.560,0.531,�쓌,0.6,��
2023/06/12,21:30,0.526,0.782,0.482,0.943,0.685,0.319,0.562,0.529,��쓌,1.5,��
2023/06/12,21:40,0.528,0.784,0.482,0.943,0.684,0.320,0.560,0.531,��쓌,0.9,��
2023/06/12,21:50,0.527,0.783,0.482,0.943,0.685,0.319,0.560,0.531,��,0.8,��
2023/06/12,22:00,0.527,0.783,0.481,0.942,0.683,0.320,0.561,0.530,-,CALM,��
2023/06/12,22:10,0.529,0.780,0.482,0.942,0.684,0.319,0.560,0.531,-,CALM,��
2023/06/12,22:20,0.526,0.783,0.482,0.942,0.684,0.320,0.561,0.530,-,CALM,��
2023/06/12,22:30,0.529,0.781,0.482,0.942,0.685,0.319,0.562,0.531,��,0.6,��
2023/06/12,22:40,0.528,0.781,0.482,0.943,0.685,0.320,0.560,0.532,��,0.8,��
2023/06/12,22:50,0.527,0.783,0.483,0.943,0.685,0.320,0.562,0.530,-,CALM,�L
2023/06/12,23:00,0.529,0.784,0.482,0.945,0.683,0.321,0.560,0.529,-,CALM,�L
2023/06/12,23:10,0.527,0.782,0.482,0.943,0.685,0.319,0.562,0.532,�k��,1.4,�L
2023/06/12,23:20,0.527,0.784,0.483,0.944,0.684,0.319,0.560,0.530,�k�k��,2.9,�L
2023/06/12,23:30,0.528,0.781,0.481,0.945,0.685,0.319,0.559,0.531,�k�k��,2.2,�L
2023/06/12,23:40,0.526,0.781,0.481,0.944,0.684,0.320,0.561,0.529,�k�k��,2.2,�L
2023/06/12,23:50,0.526,0.783,0.482,0.944,0.685,0.320,0.560,0.530,�k,2.2,�L
